Regional Weather Roundup
Issued by NWS State College, PA

Home | Current Version | Previous Version | Text Only | Print | Product List | Glossary On
Versions: 1 2 3 4 5 6 7 8 9 10 11 12 13 14 15 16 17 18 19 20 21 22 23 24 25 26 27 28 29 30 31 32 33 34 35 36 37 38 39 40 41 42 43 44 45 46 47 48 49 50
000
ASUS41 KCTP 232103
RWRCTP

REGIONAL WEATHER ROUNDUP
NATIONAL WEATHER SERVICE STATE COLLEGE PA
400 PM EST MON JAN 23 2017

Note: "fair" indicates few or no clouds below 12,000 feet with no
significant weather and/or obstructions to visibility.

* = STATION THAT DOES NOT REPORT PRECIPITATION /E.G. RAIN...SNOW...ETC/
    THUNDER OR FOG.

PAZ002>004-007>009-013>016-020>023-029>032-232200-
WESTERN PENNSYLVANIA

CITY           SKY/WX    TMP DP  RH WIND       PRES   REMARKS
ERIE           CLOUDY    43  38  82 NE18      29.60S
MEADVILLE      LGT RAIN  49  40  71 E8        29.56R
FRANKLIN*        N/A     45  37  76 E7        29.58R
NEW CASTLE     LGT RAIN  43  42  97 CALM      29.58R
BEAVER COUNTY  RAIN      39  39 100 E5        29.56R
BUTLER*        CLOUDY    39  37  93 NE10      29.58R
PITTSBURGH INT RAIN      41  40  96 NE9       29.54R
PITTSBURGH     LGT RAIN  40  36  86 NE6       29.54R
INDIANA*       CLOUDY    39  37  93 MISG      29.59R FOG
LATROBE        LGT RAIN  39  39 100 E12G21    29.55R FOG
WASHINGTON CO* CLOUDY    37  36  93 NE7       29.54R
$$

PAZ004>006-010>012-017>019-024>028-033>037-041-042-045-046-049>053-232200-
CENTRAL PENNSYLVANIA

CITY           SKY/WX    TMP DP  RH WIND       PRES   REMARKS
BRADFORD       LGT RAIN  41  37  86 E13       29.58R
DUBOIS         LGT RAIN  39  35  86 E9        29.55R FOG
CLEARFIELD     RAIN      38  36  92 E9        29.58R FOG
JOHNSTOWN      LGT SNOW  33  33 100 E13       29.50R VSB 3/4
ALTOONA        LGT SNOW  35  35 100 NE8       29.58R FOG
STATE COLLEGE  LGT RAIN  36  34  93 NE12G18   29.59R
WILLIAMSPORT   LGT RAIN  41  30  65 NE9       29.62R
SELINSGROVE    RAIN      37  33  85 NE15      29.61R FOG
FT INDIANTOWN  LGT RAIN  36  36 100 NE10G20   29.57R FOG
CAPITAL CITY   HVY RAIN  38  33  82 E14       29.59R
HARRISBURG     HVY RAIN  38  34  85 E15G29    29.59R FOG
YORK           HVY RAIN  36  35  96 E9        29.58R FOG
$$

PAZ038>040-043-044-047-048-054-055-060>062-067>071-232200-
EASTERN PENNSYLVANIA

CITY           SKY/WX    TMP DP  RH WIND       PRES   REMARKS
SCRANTON       LGT RAIN  35  30  82 NE14G22   29.63F
MOUNT POCONO   MIX PCPN  30  26  85 E22G33    29.59F
ALLENTOWN      RAIN      37  31  78 NE20G29   29.61F
QUAKERTOWN*    CLOUDY    36  32  87 NE12G18   29.59S
READING        HVY RAIN  37  35  92 NE15G22   29.58R FOG
LANCASTER      RAIN      37  35  92 E23G35    29.55R FOG
COATESVILLE    RAIN      36  34  93 NE15G35   29.53F
POTTSTOWN      RAIN      35  35 100 E14G26    29.58F FOG
BLUE BELL      CLOUDY    36  34  93 NE20G32   29.55F
DOYLESTOWN     LGT RAIN  37  34  89 NE13G29   29.56F
WILLOW GROVE   NOT AVBL
NORTH PHILA    LGT RAIN  39  35  86 NE29G38   29.56F
PHILADELPHIA   LGT RAIN  38  34  85 NE24G41   29.56R
$$




USA.gov is the U.S. government's official web portal to all federal, state and local government web resources and services.